Location: Recife
(8.0585°S, 34.8848°W)
Time: 06:44:27
(UTC-03:00)

Vanguard 1 - Pass Details

Date: 17 April 2026
Orbit: 654 x 3817 km, 34.2° (Epoch: 13 May)

Event Time Altitude Azimuth Distance (km) Brightness Sun altitude
Rises 14:42:50 0° 211° (SSW) 3,852 13.2 36.0°
Reaches altitude 10° 14:46:13 10° 191° (S) 3,279 12.8 35.2°
Maximum altitude 14:51:55 19° 148° (SSE) 3,302 12.5 33.8°
Drops below altitude 10° 14:59:59 10° 109° (ESE) 4,881 13.2 31.9°
Sets 15:06:50 0° 93° (E) 6,580 13.8 30.3°
